Вернуться в каталог

STARLINK-30486

АктивенСвязьVLEO
NORAD 58009·PAYLOAD·🇺🇸 United States

Запущен Oct 5, 2023 с Cape Canaveral Space Force Station

Loading…

Ближайшие Пролёты (ближайшие 24 часа)

TLE

СвежийSource: CelesTrak SupGP

Эпоха: Sep 15, 2026, 02:07 UTC

1 58009C 23153U   26258.08868056 -.00026612  00000+0 -96376-3 0  2580
2 58009  43.0029  77.2199 0001507 266.3320 136.9006 15.27596388    12

Отслеживайте STARLINK-30486 в реальном времени с AllMySat

Download on the App Store